Regional Weather Roundup
Issued by NWS

Home | Current Version | Previous Version | Graphics & Text | Print | Product List | Glossary On
Versions: 1 2 3 4 5 6 7 8 9 10 11 12 13 14 15 16 17 18 19 20 21 22 23 24 25 26 27 28 29 30 31 32 33 34 35 36 37 38 39 40 41 42 43 44 45 46 47 48 49 50
000
ASUS43 KDMX 031207
RWRIA

WEATHER ROUNDUP FOR IOWA
NATIONAL WEATHER SERVICE DES MOINES IA
700 AM CDT MON AUG 03 2015

NOTE: "FAIR" INDICATES FEW OR NO CLOUDS BELOW 12,000 FEET WITH NO
SIGNIFICANT WEATHER AND/OR OBSTRUCTIONS TO VISIBILITY.

* - THESE STATIONS ARE NOT NWS STATIONS...THUS NOT UNDER NWS
QUALITY CONTROL.  THEY ALSO DO NOT REPORT WEATHER SUCH
AS PRECIPITATION OR FOG.

IAZ001>003-012>014-020>022-031>034-043>046-031300-
   NORTHWEST IOWA

CITY           SKY/WX    TMP DP  RH WIND       PRES   REMARKS
CARROLL *      CLEAR     61  59  94 CALM      29.96R
CHEROKEE *     CLEAR     58  58 100 CALM      29.97F
DENISON *      CLEAR     63  61  94 CALM      29.95S
LE MARS *      CLEAR     57  57 100 CALM      29.98F
ORANGE CITY *  CLEAR     61  54  77 CALM      29.98S
SHELDON *      CLEAR     54  54 100 CALM      29.97S
SPENCER        CLEAR     55  51  86 CALM      29.98R
6HR MIN TEMP:  52; 6HR MAX TEMP:  63;

STORM LAKE *   CLEAR     59  55  88 CALM      29.98S
$$

IAZ055>058-069>071-079>083-090>094-031300-
   SOUTHWEST IOWA

CITY           SKY/WX    TMP DP  RH WIND       PRES   REMARKS
ATLANTIC *     CLOUDY    64  64 100 CALM      29.96R
AUDUBON *      CLEAR     63  59  88 CALM      29.97R
CLARINDA *     CLOUDY    70  66  88 N5        29.96R
COUNCIL BLFS * PTCLDY    66  63  88 NE8       29.95S
CRESTON *      MOCLDY    66  61  82 NE6       29.96R
HARLAN  *      CLEAR     63  63 100 CALM      29.99S
LAMONI         LGT RAIN  67  62  84 N6        29.95R
6HR MIN TEMP:  66; 6HR MAX TEMP:  70; 6HR PCP: TRACE;

RED OAK *      CLOUDY    68  66  94 NE5       29.94S
SHENANDOAH *   CLOUDY    70  64  83 NE6       29.94S
$$

IAZ047>049-059>061-072>074-084-031300-
   CENTRAL IOWA

CITY           SKY/WX    TMP DP  RH WIND       PRES   REMARKS
AMES           CLEAR     62  59  90 N7        29.94R
6HR MIN TEMP:  59; 6HR MAX TEMP:  69;

ANKENY *       CLEAR     63  59  88 CALM      29.93R
CHARITON *     CLOUDY    66  63  88 CALM      29.94R
DES MOINES     PTCLDY    69  57  65 CALM      29.93R
6HR MIN TEMP:  68; 6HR MAX TEMP:  75;

GRINNELL*      CLEAR     59  55  88 NW5       29.94R
KNOXVILLE *    PTCLDY    66  57  72 N6        29.92S
MARSHALLTOWN     N/A     61  56  83 NW8       29.92R
6HR MIN TEMP:  57; 6HR MAX TEMP:  68;

PELLA *        CLEAR     64  63  94 NW5       29.94R
PERRY *          N/A     63  61  94 NW3       29.95R
$$

IAZ004>006-015-016-023>025-035-036-031300-
   NORTH CENTRAL IOWA

CITY           SKY/WX    TMP DP  RH WIND       PRES   REMARKS
ALGONA *       CLEAR     57  55  94 CALM      29.97R
CLARION *        N/A     55  54  94 W3        29.96R
ESTHERVILLE    CLEAR     53  52  96 SW6       29.97R
6HR MIN TEMP:  52; 6HR MAX TEMP:  59;

FORT DODGE *   CLEAR     57  54  88 CALM      29.97R
MASON CITY     CLEAR     58  55  90 W7        29.96R
6HR MIN TEMP:  53; 6HR MAX TEMP:  61;

FOREST CITY *  CLEAR     52  52 100 CALM      29.95R
IOWA FALLS *     N/A     58  55  89 W5        29.95S
$$

IAZ007>011-017>019-026>030-037>042-050>054-066-031300-
   NORTHEAST IOWA

CITY           SKY/WX    TMP DP  RH WIND       PRES   REMARKS
CEDAR RAPIDS   CLEAR     59  59 100 W5        29.90R
6HR MIN TEMP:  59; 6HR MAX TEMP:  69;

CHARLES CITY * CLEAR     55  55 100 NW3       29.93S
CLINTON *      SUNNY     63  61  94 N6        29.89R
DECORAH *      CLEAR     57  55  94 CALM      29.90R
DUBUQUE        SUNNY     63  55  75 N3        29.90R
6HR MIN TEMP:  60; 6HR MAX TEMP:  72;

MONTICELLO *   CLEAR     63  59  88 N3        29.89S
OELWEIN *      CLEAR     57  55  94 CALM      29.92S
WATERLOO       CLEAR     58  56  93 W5        29.91R
6HR MIN TEMP:  56; 6HR MAX TEMP:  68;

$$

IAZ064-065-067-068-078-031300-
   EAST CENTRAL IOWA

CITY           SKY/WX    TMP DP  RH WIND       PRES   REMARKS
DAVENPORT      CLEAR     63  61  93 NW5       29.88R
6HR MIN TEMP:  63; 6HR MAX TEMP:  71;

IOWA CITY      CLEAR     67  59  75 N6        29.91R
6HR MIN TEMP:  64; 6HR MAX TEMP:  72;

MT. PLEASANT * CLEAR     68  58  70 N9G16     29.88S
MUSCATINE *    PTCLDY    66  61  82 NW7       29.89R
QUAD CITIES    CLEAR     69  60  73 NW8       29.86R
6HR MIN TEMP:  67; 6HR MAX TEMP:  75;

$$

IAZ062-063-075>077-085>089-095>099-031300-
   SOUTHEAST IOWA

CITY           SKY/WX    TMP DP  RH WIND       PRES   REMARKS
BURLINGTON     CLEAR     68  63  84 N8        29.87R
6HR MIN TEMP:  66; 6HR MAX TEMP:  73;

FAIRFIELD *    PTCLDY    64  59  82 N8        29.89S
FORT MADISON * CLEAR     64  63  94 NW3       29.88R
KEOKUK *       CLEAR     68  63  83 CALM      29.87S
OSKALOOSA *    MOCLDY    65  59  82 N5        29.91S
CENTERVILLE *  PTCLDY    64  63  94 N6        29.94R
OTTUMWA        PTCLDY    65  61  87 NW8       29.90R
6HR MIN TEMP:  63; 6HR MAX TEMP:  69;

WASHINGTON *   MOCLDY    64  61  88 N8        29.91R
$$

ABBREVIATIONS USED IN REMARKS
   TC - TEMPERATURES IN CELSIUS
  WCI - WIND CHILL INDEX
   HX - HEAT INDEX
  VSB - VISIBILITY
$$



USA.gov is the U.S. government's official web portal to all federal, state and local government web resources and services.